#timestamp,LO_Frequency,Hit,StdDev 
1630569615.8,286046999.5,N
1630569635.6,286046996.9,N
1630569655.4,286046996.5,N
1630569675.3,286046998.0,N
1630569695.1,286046998.0,N
1630569715.9,286046995.0,Y
1630569735.7,286046997.4,P
1630569755.5,286046996.7,P
1630569775.4,286046997.2,P
1630569795.2,286046996.7,Y
1630569815.1,286047001.1,P
1630569816.0,286047001.1,N
1630569835.8,286047000.6,N
1630569855.6,286047000.8,N
1630569875.5,286046998.2,N
1630569895.3,286046998.4,N
1630569915.1,286046998.2,N
1630569935.9,286047001.2,N
1630569955.7,286047000.1,N
1630569975.6,286047000.1,N
1630569995.4,286046999.9,N
1630570015.2,286047000.0,N
1630570035.1,286047000.6,N
1630570036.0,286047000.6,N
1630570055.8,286047000.2,N
1630570075.6,286047001.1,N
1630570095.5,286046998.2,N
1630570115.3,286046998.7,N
1630570135.2,286047000.7,N
1630570155.9,286046998.3,N
1630570175.7,286046999.1,N
1630570195.6,286046999.3,N
1630570215.4,286047001.1,N
1630570235.2,286046998.4,N
1630570255.1,286046999.0,N
1630570256.0,286046999.0,N
1630570275.8,286046999.0,N
1630570295.7,286046999.4,N
1630570315.5,286046999.4,N
1630570335.3,286046999.0,N
1630570355.2,286046999.0,N
1630570375.0,286046999.0,N
1630570375.9,286046999.0,N
1630570395.7,286046996.5,Y
1630570415.6,286046997.0,P
1630570435.7,286046997.5,N
1630570455.5,286046995.5,P
1630570475.4,286046995.0,Y
1630570495.2,286046998.5,P
1630570515.0,286046998.6,N
1630570515.9,286046998.6,N
1630570535.8,286046998.5,N
1630570555.6,286047000.7,N
1630570575.4,286047000.9,N
1630570595.3,286047000.9,N
1630570615.1,286046998.7,N
1630570635.9,286047000.7,N
1630570655.7,286047000.5,N
1630570675.5,286047000.7,N
1630570695.4,286047001.0,N
1630570715.2,286046998.6,N
1630570735.0,286046998.9,N
1630570735.9,286046998.9,N
1630570755.8,286046998.9,N
1630570775.6,286046999.0,N
1630570795.5,286046999.3,N
1630570815.3,286046998.5,N
1630570835.1,286046996.9,N
1630570855.9,286046997.0,N
1630570875.7,286046998.5,N
1630570895.5,286047002.7,N
1630570915.4,286047000.2,N
1630570935.2,286047002.1,N
1630570955.1,286046999.9,N
1630570956.0,286046999.9,N
1630570975.8,286047000.8,N
1630570995.6,286046999.2,N
1630571015.5,286046999.1,N
1630571035.3,286046998.9,N
1630571055.1,286046999.1,N
1630571075.9,286046999.6,N
1630571095.7,286046996.8,N
1630571115.6,286046997.7,N
1630571135.4,286046997.1,N
1630571155.2,286046999.5,N
1630571175.1,286046999.1,N
1630571176.0,286046999.1,N
1630571195.8,286046996.7,N
1630571215.6,286046996.7,N
1630571235.5,286046997.7,N
1630571255.3,286046997.4,N
1630571275.1,286046997.1,N
1630571295.9,286046997.8,N
1630571315.7,286046997.7,N
1630571335.6,286046997.2,N
1630571355.4,286046997.0,N
1630571375.2,286046999.4,N
1630571395.1,286046999.4,N
1630571396.0,286046999.4,N
1630571415.8,286046999.6,N
1630571435.7,286046996.8,N
1630571455.5,286046996.7,N
1630571475.3,286046997.1,N
1630571495.2,286046996.5,N
1630571515.9,286046996.9,N
1630571535.7,286046997.1,N
1630571555.6,286046994.9,Y
1630571575.4,286046998.3,P
1630571595.3,286046999.0,P
1630571615.1,286046998.2,P
1630571616.0,286046998.2,Y
1630571635.8,286047000.1,P
1630571655.7,286047000.7,N
1630571675.5,286047001.0,N
1630571695.4,286046998.6,N
1630571715.2,286047000.5,N
1630571735.0,286047000.7,N
1630571735.9,286047000.7,N
1630571755.8,286047000.0,N
1630571775.6,286047000.4,N
1630571795.4,286046998.6,N
1630571815.3,286046999.0,N
1630571835.1,286047000.8,N
1630571855.9,286047000.3,N
1630571875.7,286046998.1,N
1630571895.5,286046998.8,N
1630571915.4,286046999.3,N
1630571935.2,286046999.4,N
1630571955.0,286046999.2,N
1630571955.9,286046999.2,N
1630571975.8,286046997.0,Y
1630571995.6,286046998.7,P
1630572015.5,286047000.9,N
1630572035.3,286047002.7,N
1630572055.1,286046998.1,N
1630572075.9,286047000.9,N
1630572095.7,286046998.6,N
1630572115.5,286046999.0,N
1630572135.4,286046998.6,N
1630572155.2,286047000.7,N
1630572175.1,286047001.0,N
1630572176.0,286047001.0,N
1630572195.8,286047002.8,N
1630572215.6,286047002.0,N
1630572235.5,286047002.2,N
1630572255.3,286047002.0,N
1630572275.1,286047001.5,N
1630572295.9,286047002.0,N
1630572315.7,286047000.1,N
1630572335.6,286047001.5,N
1630572355